Location: Newark
(41.5729°N, 14.7036°E)
Time: 05:32:49
(UTC+00:00)

Envisat - Visible Passes

Search period start: 20 September 2019 00:00
Search period end: 30 September 2019 00:00
Orbit: 764 x 766 km, 98.1° (Epoch: 19 September)

Date Brightness Start Highest point End Pass type
(mag) Time Alt. Az. Time Alt. Az. Time Alt. Az.
20 Sep 4.4 17:43:44 10° S 17:48:32 43° W 17:53:23 10° NNW visible
21 Sep 6.3 18:50:15 10° W 18:51:22 11° W 18:52:30 10° WNW visible
22 Sep 5.4 18:10:06 10° SSW 18:14:12 25° W 18:18:21 10° NW visible
23 Sep 3.9 17:32:17 10° S 17:37:15 55° W 17:42:15 10° NNW visible
24 Sep 6.0 18:37:22 10° WSW 18:39:59 14° W 18:42:35 10° WNW visible
25 Sep 5.0 17:58:24 10° SSW 18:02:52 31° W 18:07:22 10° NNW visible
26 Sep 3.4 17:20:55 10° S 17:25:58 70° WSW 17:31:04 10° NNW visible
27 Sep 5.9 18:25:12 10° SW 18:28:36 18° W 18:32:00 10° NW visible
28 Sep 4.5 17:46:49 10° SSW 17:51:33 39° W 17:56:19 10° NNW visible
29 Sep 3.1 17:09:38 10° SSE 17:14:42 88° WSW 17:19:49 10° NNW visible
